{"data":{"norad_id":67841,"intl_designator":"2026-033W","name":"STARLINK-36656","alt_names":[],"object_type":"PAYLOAD","status":"ACTIVE","operator":null,"country":"US","launch_date":"2026-02-16","launch_site_code":"AFETR","launch_vehicle":null,"mission":null,"orbit_class":"UNKNOWN","rcs_meters":null,"size_class":null,"mass_kg":null,"dimensions":null,"purposes":["comms"],"wikipedia_slug":null,"has_3d_model":false,"image_url":null,"decayed_at":null,"tle_current":{"epoch":"2026-09-19T08:34:34.021344Z","epoch_age_seconds":165221,"freshness":"FRESH","line1":"1 67841U 26033W   26262.35733821  .00012971  00000+0  47999-3 0  9990","line2":"2 67841  43.0025 253.2623 0001164 265.1157  94.9562 15.27585337 34293","mean_motion":15.27585337,"eccentricity":0.0001164,"inclination_deg":43.0025,"raan_deg":253.2623,"arg_perigee_deg":265.1157,"mean_anomaly_deg":94.9562,"bstar":0.00047999,"rev_number":3429,"period_min":94.266419369277,"perigee_km":482.2344749868,"apogee_km":483.83175538961,"semimajor_km":6861.1701151882,"source":"CELESTRAK","updated_at":"2026-09-20T09:00:43.671189Z"}}}